Location: Hylvaty SDH
(49.9612°N, 16.4057°E)
Time: 04:17:59
(UTC+01:00)

Tiros 1 despin weight - Pass Details

Date: 23 January 2021
Orbit: 593 x 642 km, 48.2° (Epoch: 24 February)

Event Time Altitude Azimuth Distance (km) Brightness Sun altitude
Rises 19:21:44 0° 280° (W) 2,852 ? -26.7°
Reaches altitude 10° 19:24:09 10° 273° (W) 1,940 ? -27.0°
Enters shadow 19:27:48 37° 221° (SW) 928 ? -27.6°
